"Pseudo-MPEC" for P11WMCC

Created 2024 Aug 15 21:22:05 UT using Find_Orb

Click here for an explanation of pseudo-MPECs

 
 Astrometry: 
     P11WMCC* C2024 08 01.55911900 02 52.446-24 58 21.35   ~81Gq 20.89wXNEOCPF51
     P11WMCC  C2024 08 01.56942900 02 52.674-24 58 19.31   ~81Gq 21.19wXNEOCPF51
     P11WMCC  C2024 08 01.57974900 02 52.913-24 58 17.13   ~81Gq 20.91wXNEOCPF51
     P11WMCC  C2024 08 01.59005200 02 53.149-24 58 14.95   ~81Gq 21.01wXNEOCPF51

Station data:
(F51) Pan-STARRS 1, Haleakala  (N20.707234 W156.255910)  US/Hawaii.
   Observers J. Bulger, T. Lowe, A. Schultz, M. Willman. Measurers K.
   Chambers, S. Chastel, T. de Boer, L. Denneau, J. Fairlamb, H. Flewelling,
   M. Huber, C.-C. Lin, E. Magnier, Y. Ramanjooloo, R. Wainscoat, R. Weryk.
   1.8-m Ritchey-Chrétien + CCD.

Orbital elements:  P11WMCC
   Perihelion 2024 Aug 4.38777 +/- 50.9 TT =  9:18:23 (JD 2460526.88777)
Epoch 2024 Aug  2.0 TT = JDT 2460524.5   Earth MOID: 0.4587      AutoNEOCP
M 359.12745921 +/- 34               (J2000 ecliptic)
n   0.36542040 +/- 0.366            Peri.  304.02701 +/- 110
a   1.93764488 +/- 1.3              Node    19.85627 +/- 39
e   0.2569402 +/- 0.257             Incl.    9.90357 +/- 15
P   2.697/985.148d         H 20.13  G  0.15   U 12.1  SR
q 1.43978600 +/- 0.572    Q 2.43550375 +/- 57.7
From 4 observations 2024 Aug. 1 (44.5 min); mean residual 0".03
Residuals in arcseconds: 
240801 F51  .04+  .03+    240801 F51  .00   .00     
240801 F51  .06-  .04-    240801 F51  .02+  .02+    

Ephemerides (geocentric):
Date (UTC) HH   RA             Dec           delta  r     elong  mag " sig PA
---- --------  ------------   ------------  ------ ------ -----  --- --------
2024 08 15 21  00 04 00.922   -24 00 11.47  .49052 1.4422 145.0 20.5  62d 107
2024 08 15 22  00 04 00.076   -23 59 58.87  .49042 1.4422 145.0 20.5  62d 107
2024 08 15 23  00 03 59.223   -23 59 46.25  .49032 1.4422 145.1 20.5  62d 107
2024 08 16 00  00 03 58.365   -23 59 33.61  .49022 1.4423 145.1 20.5  62d 107
2024 08 16 01  00 03 57.501   -23 59 20.95  .49012 1.4423 145.1 20.5  62d 107
2024 08 16 02  00 03 56.631   -23 59 08.27  .49002 1.4423 145.2 20.5  62d 107
2024 08 16 03  00 03 55.755   -23 58 55.57  .48992 1.4423 145.2 20.5  62d 107
2024 08 16 04  00 03 54.874   -23 58 42.85  .48983 1.4423 145.3 20.5  62d 107
2024 08 16 05  00 03 53.986   -23 58 30.11  .48973 1.4423 145.3 20.5  62d 107
2024 08 16 06  00 03 53.093   -23 58 17.34  .48963 1.4424 145.3 20.5  62d 107
2024 08 16 07  00 03 52.194   -23 58 04.56  .48953 1.4424 145.4 20.5  62d 107
2024 08 16 08  00 03 51.288   -23 57 51.75  .48943 1.4424 145.4 20.5  62d 107
2024 08 16 09  00 03 50.377   -23 57 38.93  .48934 1.4424 145.4 20.5  62d 107
2024 08 16 10  00 03 49.461   -23 57 26.08  .48924 1.4424 145.5 20.5  62d 107
2024 08 16 11  00 03 48.538   -23 57 13.21  .48914 1.4425 145.5 20.5  62d 107
2024 08 16 12  00 03 47.609   -23 57 00.33  .48904 1.4425 145.5 20.5  62d 107
2024 08 16 13  00 03 46.675   -23 56 47.42  .48895 1.4425 145.6 20.5  62d 107
2024 08 16 14  00 03 45.735   -23 56 34.49  .48885 1.4425 145.6 20.5  62d 107
2024 08 16 15  00 03 44.789   -23 56 21.54  .48875 1.4425 145.6 20.5  62d 107
2024 08 16 16  00 03 43.837   -23 56 08.56  .48866 1.4425 145.7 20.5  62d 107
2024 08 16 17  00 03 42.879   -23 55 55.57  .48856 1.4426 145.7 20.5  62d 107
2024 08 16 18  00 03 41.916   -23 55 42.56  .48847 1.4426 145.7 20.5  62d 107
2024 08 16 19  00 03 40.947   -23 55 29.52  .48837 1.4426 145.8 20.5  62d 107
2024 08 16 20  00 03 39.971   -23 55 16.46  .48828 1.4426 145.8 20.5  62d 107
2024 08 16 21  00 03 38.990   -23 55 03.38  .48818 1.4426 145.8 20.5  62d 107
2024 08 16 22  00 03 38.004   -23 54 50.28  .48809 1.4427 145.9 20.5  62d 107
2024 08 16 23  00 03 37.011   -23 54 37.16  .48799 1.4427 145.9 20.5  62d 107
2024 08 17 00  00 03 36.013   -23 54 24.02  .48790 1.4427 145.9 20.5  62d 107
2024 08 17 01  00 03 35.009   -23 54 10.85  .48780 1.4427 146.0 20.5  62d 107
2024 08 17 02  00 03 33.999   -23 53 57.67  .48771 1.4427 146.0 20.5  62d 107
2024 08 17 03  00 03 32.983   -23 53 44.46  .48761 1.4428 146.0 20.5  62d 107
2024 08 17 04  00 03 31.961   -23 53 31.23  .48752 1.4428 146.1 20.5  62d 107
2024 08 17 05  00 03 30.934   -23 53 17.98  .48743 1.4428 146.1 20.5  62d 107
2024 08 17 06  00 03 29.901   -23 53 04.70  .48733 1.4428 146.1 20.5  62d 107
2024 08 17 07  00 03 28.862   -23 52 51.41  .48724 1.4428 146.2 20.5  62d 107
2024 08 17 08  00 03 27.817   -23 52 38.09  .48715 1.4429 146.2 20.5  62d 107
2024 08 17 09  00 03 26.767   -23 52 24.75  .48705 1.4429 146.2 20.5  62d 107
2024 08 17 10  00 03 25.710   -23 52 11.39  .48696 1.4429 146.3 20.5  62d 107
2024 08 17 11  00 03 24.648   -23 51 58.01  .48687 1.4429 146.3 20.5  62d 107
2024 08 17 12  00 03 23.581   -23 51 44.60  .48678 1.4429 146.3 20.5  62d 107
2024 08 17 13  00 03 22.507   -23 51 31.18  .48668 1.4429 146.4 20.4  62d 107
2024 08 17 14  00 03 21.428   -23 51 17.73  .48659 1.4430 146.4 20.4  62d 107
2024 08 17 15  00 03 20.343   -23 51 04.26  .48650 1.4430 146.4 20.4  62d 107
2024 08 17 16  00 03 19.252   -23 50 50.76  .48641 1.4430 146.5 20.4  62d 107
2024 08 17 17  00 03 18.155   -23 50 37.24  .48632 1.4430 146.5 20.4  62d 107
2024 08 17 18  00 03 17.053   -23 50 23.71  .48623 1.4431 146.5 20.4  62d 107
2024 08 17 19  00 03 15.945   -23 50 10.14  .48613 1.4431 146.6 20.4  62d 107
2024 08 17 20  00 03 14.831   -23 49 56.56  .48604 1.4431 146.6 20.4  62d 107